Weather History for KLUK - December, 2013

Change the Weather History Date:

Wednesday, December 11, 2013

  Actual Average (KCVG) Record (KCVG)
Temperature  
Mean Temperature 22 °F 35 °F  
Max Temperature 35 °F 43 °F 70 °F (1931)
Min Temperature 10 °F 28 °F -13 °F (1917)
Degree Days  
Heating Degree Days 42 30  
Month to date heating degree days 311  
Since 1 July heating degree days 1271  
Cooling Degree Days 0 0  
Month to date cooling degree days 0  
Year to date cooling degree days 1121  
Moisture  
Dew Point 14 °F    
Average Humidity 81    
Maximum Humidity 100    
Minimum Humidity 59    
Precipitation  
Precipitation 0.00 in 0.12 in 1.73 in (1964)
Month to date precipitation 1.24  
Year to date precipitation 40.39  
Snow  
Snow 0.00 in 0.10 in 4.00 in (1944)
Month to date snowfall 1.2  
Since 1 July snowfall 2.0  
Snow Depth -    
Sea Level Pressure  
Sea Level Pressure 30.42 in    
Wind  
Wind Speed 3 mph (West)    
Max Wind Speed 15 mph    
Max Gust Speed 24 mph    
Visibility 6 miles    
Events Fog    
T = Trace of Precipitation, MM = Missing Value Source: NWS Daily Summary

Daily Weather History Graph

Daily Weather History Graph

Search for Another Location

Airport or City:

Trip Planner

Search our weather history database for the weather conditions in past years. The results will help you decide how hot, cold, wet, or windy it might be!

Date:

Astronomy

Dec. 11, 2013 Rise Set
Actual Time 7:46 AM EST 5:15 PM EST
Civil Twilight 7:16 AM EST 5:45 PM EST
Nautical Twilight 6:43 AM EST 6:18 PM EST
Astronomical Twilight 6:10 AM EST 6:51 PM EST
Moon 1:46 PM EST (12/11) 2:09 AM EST (12/11)
Length of Visible Light 10h 28m
Length of Day
9h 28m
Waxing Gibbous, 71% of the Moon is Illuminated
Dec 11
Waxing Gibbous
Dec 17
Full
Dec 25
Last Quarter
Jan 1
New
Jan 7
First Quarter

Hourly Weather History & Observations

Time (EST) Temp. Windchill Dew Point Humidity Pressure Visibility Wind Dir Wind Speed Gust Speed Precip Events Conditions
12:53 AM 19.9 °F 12.1 °F 12.9 °F 74% 30.41 in 10.0 mi South 5.8 mph - N/A   Clear
1:53 AM 18.0 °F - 14.0 °F 84% 30.40 in 10.0 mi Calm Calm - N/A   Clear
2:53 AM 15.1 °F - 12.9 °F 91% 30.43 in 8.0 mi Calm Calm - N/A   Clear
3:53 AM 15.1 °F - 12.0 °F 88% 30.44 in 3.0 mi Calm Calm - N/A   Clear
4:00 AM 14.0 °F - 12.2 °F 93% 30.41 in 2.0 mi Calm Calm - N/A   Clear
4:10 AM 14.0 °F - 12.2 °F 93% 30.41 in 3.0 mi Calm Calm - N/A   Clear
4:17 AM 15.8 °F - 14.0 °F 93% 30.41 in 2.0 mi Calm Calm - N/A   Clear
4:32 AM 10.4 °F - 8.6 °F 92% 30.41 in 0.8 mi Calm Calm - N/A   Clear
4:53 AM 12.9 °F - 10.9 °F 92% 30.43 in 0.2 mi Calm Calm - N/A Fog Light Freezing Fog
5:01 AM 12.2 °F - 10.4 °F 92% 30.41 in 0.5 mi Calm Calm - N/A Fog Light Freezing Fog
5:07 AM 14.0 °F - 12.2 °F 93% 30.41 in 1.0 mi Calm Calm - N/A   Mist
5:09 AM 12.2 °F - 10.4 °F 92% 30.41 in 2.0 mi Calm Calm - N/A   Partly Cloudy
5:20 AM 12.2 °F - 10.4 °F 92% 30.41 in 1.0 mi Calm Calm - N/A   Mist
5:27 AM 12.2 °F - 12.2 °F 100% 30.40 in 0.5 mi Calm Calm - N/A Fog Light Freezing Fog
5:41 AM 12.2 °F - 10.4 °F 92% 30.40 in 2.0 mi Calm Calm - N/A   Mostly Cloudy
5:46 AM 12.2 °F - 10.4 °F 92% 30.40 in 5.0 mi Calm Calm - N/A   Scattered Clouds
5:53 AM 12.9 °F - 10.9 °F 92% 30.42 in 5.0 mi Calm Calm - N/A   Scattered Clouds
6:46 AM 10.4 °F - 8.6 °F 92% 30.40 in 6.0 mi Calm Calm - N/A   Mostly Cloudy
6:53 AM 12.0 °F - 10.9 °F 95% 30.42 in 0.5 mi Calm Calm - N/A Fog Light Freezing Fog
7:23 AM 12.2 °F - 10.4 °F 92% 30.40 in 1.0 mi Calm Calm - N/A   Mostly Cloudy
7:43 AM 12.2 °F - 10.4 °F 92% 30.40 in 2.5 mi Calm Calm - N/A   Partly Cloudy
7:53 AM 12.0 °F - 10.0 °F 92% 30.43 in 3.0 mi Calm Calm - N/A   Partly Cloudy
8:53 AM 18.0 °F - 14.0 °F 84% 30.43 in 3.0 mi Calm Calm - N/A   Clear
9:53 AM 21.0 °F - 18.0 °F 88% 30.44 in 5.0 mi Calm Calm - N/A   Clear
10:53 AM 25.0 °F 13.6 °F 21.0 °F 85% 30.41 in 10.0 mi SSW 12.7 mph - N/A   Clear
11:53 AM 30.0 °F 21.1 °F 21.0 °F 69% 30.39 in 10.0 mi SSW 10.4 mph - N/A   Clear
12:53 PM 32.0 °F 22.1 °F 21.9 °F 66% 30.34 in 10.0 mi SSW 13.8 mph - N/A   Clear
1:53 PM 34.0 °F 25.0 °F 21.0 °F 59% 30.32 in 10.0 mi SW 12.7 mph 23.0 mph N/A   Clear
2:53 PM 35.1 °F 26.4 °F 21.9 °F 59% 30.33 in 10.0 mi SW 12.7 mph - N/A   Clear
3:53 PM 34.0 °F 24.2 °F 21.0 °F 59% 30.35 in 10.0 mi WSW 15.0 mph - N/A   Clear
4:53 PM 34.0 °F 25.5 °F 23.0 °F 64% 30.37 in 10.0 mi West 11.5 mph - N/A   Overcast
5:53 PM 32.0 °F 24.8 °F 19.9 °F 61% 30.41 in 10.0 mi NW 8.1 mph - N/A   Overcast
6:53 PM 30.0 °F 20.0 °F 19.0 °F 64% 30.44 in 10.0 mi NW 12.7 mph 19.6 mph N/A   Overcast
7:53 PM 26.1 °F 14.0 °F 16.0 °F 66% 30.49 in 10.0 mi NNW 15.0 mph 24.2 mph N/A   Mostly Cloudy
8:53 PM 24.1 °F 16.0 °F 14.0 °F 65% 30.52 in 10.0 mi NW 6.9 mph - N/A   Overcast
9:53 PM 23.0 °F 12.4 °F 10.9 °F 60% 30.54 in 10.0 mi North 10.4 mph - N/A   Mostly Cloudy
10:53 PM 23.0 °F 13.1 °F 10.9 °F 60% 30.55 in 10.0 mi NNW 9.2 mph - N/A   Overcast
11:53 PM 19.9 °F 11.1 °F 9.0 °F 62% 30.56 in 10.0 mi NNW 6.9 mph - N/A   Clear